Location: Clay (historical)
(35.1476°N, 89.8179°W)
Time: 03:23:12
(UTC+00:00)

USA 229 - Pass Details

Date: 18 February 2026
Orbit: 843 x 1365 km, 63.4° (Epoch: 10 January)

Event Time Altitude Azimuth Distance (km) Brightness Sun altitude
Rises 12:07:42 0° 205° (SSW) 3,398 6.2 -7.7°
Reaches altitude 10° 12:10:05 10° 203° (SSW) 2,489 5.5 -7.2°
Maximum altitude 12:15:47 76° 119° (ESE) 936 3.6 -6.1°
Drops below altitude 10° 12:22:06 10° 34° (NE) 2,748 6.2 -4.8°
Sets 12:24:51 0° 33° (NNE) 3,777 6.9 -4.3°
